Resourcesat-2A

operational
NORAD ID: 41877 Int'l Des: 2016-074 Owner: ISRO Country: IN
LEOCIRCULARRETROGRADESSO

About Resourcesat-2A

Description loading...

Live Position

Loading 3D Globe...

Upcoming Passes

Altitude History

Altitude vs Time

uPlot chart will show altitude changes over time

Two-Line Element Set

1 41877U 16074A 25278.21496573 .00000311 00000-0 16223-3 0 9998
2 41877 98.7836 348.4427 0002982 98.6468 261.5047 14.21622251458079
Epoch: Oct 5, 2025 • Age: 6 hours

Current Status

Altitude 821.2 km
Velocity 7.44 km/s
Sub-Earth Point 15.06°N, 8.3°W
Launch Date Dec 7, 2016
Age 8.8 years
Type other

Technical Details

Classification Payload
Mass 1235.00 kg
Dry Mass 1100.00 kg
Total Mass 1235.00 kg
Length 2.80 m
Diameter 2.00 m
Span 12.00 m
Shape Box + 2 Pan
Manufacturer ISAC/HAL
Bus Type IRS
Phase Status In Orbit
Owner/State ISRO/IN

Large Constellations

Loading constellations...